[[{"header":{"parameterUnit":"m.s-1","parameterCategory":1,"la1":30.2991,"la2":30.254,"lo1":-89.0895,"lo2":-89.0444,"dx":0.0017,"dy":0.0017,"nx":28,"ny":28,"refTime":"2022-12-30T15:00:00:Z","depth":0,"parameterNumber":2,"parameterNumberName":"U-component_of_WINDS"},"data":[0,0,0,0,0,0,0,0,0,0,0,0,0,0,0,0,0,0,0,0,0,0,0,0,0,0,0,0,0,0,0,0,0,0,0,0,0,0,0,0,0,0,0,0,0,0,0,0,0,0,0,0,0,0,0,0,0,0,-1.7001,-1.7002,0,-1.7079,-1.708,-1.7081,-1.708,-1.7079,-1.7078,-1.7077,-1.7161,-1.7164,-1.7167,0,0,0,0,0,0,0,0,0,0,0,0,0,-1.6854,-1.6857,-1.7001,-1.7002,-1.7003,-1.7079,-1.708,-1.7081,-1.708,-1.7079,-1.7078,-1.7076,-1.716,-1.7164,-1.7168,0,0,0,0,0,0,0,0,0,0,0,0,0,-1.6924,-1.6858,-1.7,-1.7011,-1.7013,-1.7078,-1.708,-1.7081,-1.708,-1.7079,-1.7077,-1.7076,-1.7159,-1.7164,-1.7168,-1.7229,0,0,-1.7183,-1.7185,0,0,0,0,0,0,0,0,-1.692,-1.6929,-1.7009,-1.7011,-1.7013,-1.7068,-1.7059,-1.7131,-1.7081,-1.7055,-1.7077,-1.7075,-1.7132,-1.7139,-1.7157,-1.7233,-1.7237,-1.7183,-1.7186,-1.7188,-1.719,0,0,0,0,0,0,0,-1.6915,-1.6926,-1.7032,-1.701,-1.7012,-1.7013,-1.7022,-1.7073,-1.7101,-1.7057,-1.7057,-1.7066,-1.7133,-1.7152,-1.7159,-1.7238,-1.7183,-1.7188,-1.7191,-1.7192,-1.7369,-1.737,0,0,0,0,0,0,-1.6907,-1.6922,-1.7029,-1.7034,-1.6961,-1.7017,-1.7026,-1.7052,-1.7101,-1.7107,-1.7068,-1.7066,-1.7145,-1.7153,-1.7162,-1.7237,-1.7188,-1.7193,-1.7196,-1.7367,-1.7369,-1.7371,0,0,0,0,0,0,-1.6904,-1.6917,-1.7026,-1.6978,-1.6992,-1.7021,-1.705,-1.7054,-1.7074,-1.7109,-1.7114,-1.7082,-1.7144,-1.7155,-1.7212,-1.724,-1.7195,-1.72,-1.7365,-1.7367,-1.737,-1.7387,0,0,0,0,0,0,-1.69,-1.6916,-1.6939,-1.6978,-1.6994,-1.7074,-1.7052,-1.7057,-1.7082,-1.708,-1.7124,-1.7129,-1.7144,-1.7205,-1.7217,-1.7245,-1.7203,-1.7362,-1.7366,-1.7369,-1.7384,-1.7389,-1.7394,0,0,0,0,0,-1.6895,-1.6941,-1.694,-1.6953,-1.7023,-1.7076,-1.7085,-1.7099,-1.7084,-1.7108,-1.713,-1.7128,-1.7234,-1.7211,-1.7224,-1.7255,-1.7361,-1.7365,-1.7369,-1.7381,-1.7388,-1.7394,0,0,0,0,0,0,-1.6906,-1.6947,-1.6946,-1.7006,-1.7037,-1.7075,-1.7106,-1.7106,-1.7143,-1.7141,-1.7158,-1.7168,-1.7225,-1.7245,-1.7219,-1.7316,-1.7296,-1.7303,-1.7301,-1.7308,-1.7313,-1.7307,-1.7207,0,0,0,0,0,-1.6914,-1.6952,-1.6987,-1.7037,-1.7052,-1.7076,-1.71,-1.7108,-1.7141,-1.7155,-1.7181,-1.7215,-1.7256,-1.7283,-1.7323,-1.7386,-1.7396,-1.7414,-1.7419,-1.7423,-1.7429,-1.7465,-1.7473,-1.7384,-1.7384,-1.7384,0,0,-1.6934,-1.6961,-1.6985,-1.704,-1.7065,-1.7105,-1.7088,-1.7131,-1.7161,-1.7162,-1.7217,-1.7238,-1.7277,-1.7337,-1.7365,-1.7356,-1.7456,-1.7428,-1.7431,-1.7435,-1.747,-1.7478,-1.7486,-1.7387,-1.7386,-1.7386,0,0,-1.6991,-1.7015,-1.7059,-1.7084,-1.7122,-1.7137,-1.7148,-1.7186,-1.7199,-1.7254,-1.7256,-1.7293,-1.7363,-1.739,-1.7414,-1.7479,-1.7479,-1.7492,-1.752,-1.7554,-1.7561,-1.7568,-1.7592,-1.76,-1.7498,-1.7498,-1.7498,0,-1.7011,-1.707,-1.7082,-1.7125,-1.715,-1.715,-1.7196,-1.722,-1.7269,-1.7287,-1.7275,-1.7363,-1.7389,-1.7456,-1.7472,-1.7491,-1.7504,-1.7487,-1.7559,-1.7566,-1.7572,-1.7595,-1.7604,-1.7499,-1.7499,-1.7499,-1.7498,0,-1.7094,-1.7135,-1.7166,-1.7212,-1.724,-1.7284,-1.7303,-1.733,-1.7335,-1.7352,-1.7409,-1.744,-1.7486,-1.7502,-1.7508,-1.757,-1.7563,-1.7555,-1.7535,-1.7581,-1.7603,-1.7612,-1.7501,-1.75,-1.75,-1.75,0,0,-1.7161,-1.7211,-1.7223,-1.7243,-1.7284,-1.7317,-1.7361,-1.7404,-1.7427,-1.7461,-1.7499,-1.7558,-1.755,-1.7577,-1.7586,-1.7616,-1.7666,-1.7604,-1.7605,-1.7615,-1.7737,-1.7743,-1.7753,-1.7666,-1.7668,-1.7669,-1.7734,0,-1.7222,-1.7299,-1.7311,-1.7379,-1.7418,-1.7418,-1.7457,-1.7487,-1.7503,-1.7539,-1.7558,-1.76,-1.7586,-1.7602,-1.7632,-1.7654,-1.7691,-1.7649,-1.7703,-1.7705,-1.7694,-1.7764,-1.7771,-1.7831,-1.7742,-1.7744,-1.7745,0,-1.7305,-1.7339,-1.7411,-1.7446,-1.7462,-1.7497,-1.7537,-1.7571,-1.7605,-1.7615,-1.7643,-1.7648,-1.7695,-1.7672,-1.7737,-1.7709,-1.7731,-1.7745,-1.7748,-1.7754,-1.7728,-1.7774,-1.785,-1.786,-1.7758,-1.7757,-1.7756,0,-1.7347,-1.7411,-1.7462,-1.748,-1.7522,-1.7546,-1.7565,-1.7597,-1.7622,-1.7658,-1.7674,-1.7715,-1.7738,-1.777,-1.7787,-1.7768,-1.7851,-1.7829,-1.7862,-1.7861,-1.788,-1.7879,-1.7962,-1.7893,-1.7893,-1.7893,-1.7893,0,-1.7415,-1.7459,-1.7482,-1.7513,-1.7563,-1.7576,-1.7625,-1.7643,-1.7672,-1.7707,-1.7711,-1.7745,-1.7764,-1.7801,-1.7814,-1.7866,-1.7877,-1.7887,-1.789,-1.7887,-1.7886,-1.7903,-1.7899,-1.7895,-1.7895,-1.7894,-1.7894,0,-1.7471,-1.7488,-1.7544,-1.7578,-1.7588,-1.7623,-1.7654,-1.7685,-1.77,-1.7746,-1.7757,-1.7783,-1.7826,-1.7845,-1.79,-1.7908,-1.7968,-1.7968,-1.7956,-1.7958,-1.7989,-1.7986,-1.8087,-1.8101,-1.8022,-1.8023,-1.8023,0,-1.7514,-1.7548,-1.7586,-1.7609,-1.7628,-1.7666,-1.7691,-1.7705,-1.7731,-1.7772,-1.7798,-1.7841,-1.7877,-1.7946,-1.7971,-1.8012,-1.8013,-1.8046,-1.802,-1.8016,-1.8015,-1.8013,-1.8016,-1.8051,-1.8052,-1.8053,-1.8053,0,-1.7589,-1.7595,-1.763,-1.7668,-1.7698,-1.7729,-1.7759,-1.7778,-1.7797,-1.7826,-1.787,-1.7897,-1.7951,-1.7995,-1.8037,-1.8058,-1.8059,-1.8061,-1.8071,-1.8068,-1.806,-1.8065,-1.797,-1.8059,-1.8058,-1.8058,-1.8057,-1.8057,-1.764,-1.767,-1.7701,-1.774,-1.7764,-1.7792,-1.7822,-1.7841,-1.7877,-1.7922,-1.7928,-1.7974,-1.8007,-1.8064,-1.8087,-1.8124,-1.8116,-1.813,-1.8134,-1.8138,-1.814,-1.8053,-1.8132,-1.8132,-1.8132,-1.8131,-1.8131,0,-1.7715,-1.7735,-1.777,-1.7812,-1.7843,-1.7839,-1.7872,-1.7898,-1.7939,-1.7969,-1.8003,-1.8053,-1.8094,-1.8121,-1.8163,-1.8188,-1.819,-1.8199,-1.8198,-1.8202,-1.8144,-1.8131,-1.8197,-1.8197,-1.8197,-1.8197,-1.8197,-1.8197,-1.7758,-1.7808,-1.7818,-1.788,-1.7899,-1.7944,-1.7963,-1.7989,-1.8013,-1.8068,-1.8102,-1.8118,-1.8147,-1.8191,-1.8229,-1.8236,-1.8252,-1.8261,-1.8268,-1.8213,-1.8207,-1.82,-1.8188,-1.8265,-1.8265,-1.8323,-1.8324,-1.8324]},{"header":{"parameterUnit":"m.s-1","parameterCategory":1,"la1":30.2991,"la2":30.254,"lo1":-89.0895,"lo2":-89.0444,"dx":0.0017,"dy":0.0017,"nx":28,"ny":28,"refTime":"2022-12-30T15:00:00:Z","depth":0,"parameterNumber":3,"parameterNumberName":"V-component_of_WINDS"},"data":[0,0,0,0,0,0,0,0,0,0,0,0,0,0,0,0,0,0,0,0,0,0,0,0,0,0,0,0,0,0,0,0,0,0,0,0,0,0,0,0,0,0,0,0,0,0,0,0,0,0,0,0,0,0,0,0,0,0,-1.2409,-1.2409,0,-1.2421,-1.2421,-1.2421,-1.2421,-1.2421,-1.2421,-1.242,-1.243,-1.243,-1.2431,0,0,0,0,0,0,0,0,0,0,0,0,0,-1.2381,-1.2382,-1.2409,-1.2409,-1.2409,-1.2421,-1.2421,-1.2421,-1.2421,-1.2421,-1.2421,-1.242,-1.243,-1.243,-1.2431,0,0,0,0,0,0,0,0,0,0,0,0,0,-1.2393,-1.2382,-1.2409,-1.2411,-1.2411,-1.2421,-1.2421,-1.2421,-1.2421,-1.2421,-1.2421,-1.242,-1.243,-1.243,-1.2431,-1.2439,0,0,-1.2433,-1.2433,0,0,0,0,0,0,0,0,-1.2393,-1.2394,-1.241,-1.241,-1.2411,-1.2419,-1.2415,-1.2427,-1.2421,-1.2417,-1.242,-1.242,-1.2426,-1.2427,-1.243,-1.244,-1.244,-1.2433,-1.2433,-1.2433,-1.2434,0,0,0,0,0,0,0,-1.2392,-1.2394,-1.2414,-1.241,-1.2411,-1.2409,-1.2411,-1.2417,-1.2423,-1.2417,-1.2417,-1.2419,-1.2427,-1.2429,-1.243,-1.244,-1.2433,-1.2433,-1.2434,-1.2434,-1.2454,-1.2454,0,0,0,0,0,0,-1.2391,-1.2393,-1.2413,-1.2414,-1.2401,-1.241,-1.2412,-1.2417,-1.2423,-1.2423,-1.2419,-1.2419,-1.2428,-1.2429,-1.243,-1.2439,-1.2433,-1.2434,-1.2434,-1.2454,-1.2454,-1.2454,0,0,0,0,0,0,-1.2391,-1.2393,-1.2413,-1.2403,-1.2406,-1.2411,-1.2416,-1.2417,-1.242,-1.2424,-1.2425,-1.2421,-1.2428,-1.243,-1.2437,-1.2439,-1.2434,-1.2435,-1.2454,-1.2454,-1.2454,-1.2457,0,0,0,0,0,0,-1.239,-1.2393,-1.2397,-1.2404,-1.2406,-1.242,-1.2417,-1.2417,-1.2421,-1.2421,-1.2426,-1.2427,-1.2428,-1.2436,-1.2437,-1.244,-1.2435,-1.2453,-1.2454,-1.2454,-1.2456,-1.2457,-1.2458,0,0,0,0,0,-1.2389,-1.2398,-1.2398,-1.24,-1.2412,-1.242,-1.2422,-1.2424,-1.2422,-1.2425,-1.2427,-1.2427,-1.2439,-1.2436,-1.2438,-1.2441,-1.2453,-1.2454,-1.2454,-1.2456,-1.2457,-1.2458,0,0,0,0,0,0,-1.2391,-1.2399,-1.2399,-1.241,-1.2414,-1.242,-1.2425,-1.2425,-1.243,-1.2429,-1.2431,-1.2432,-1.2438,-1.244,-1.2438,-1.2448,-1.2445,-1.2446,-1.2447,-1.2447,-1.2448,-1.2447,-1.2436,0,0,0,0,0,-1.2393,-1.24,-1.2406,-1.2415,-1.2417,-1.2421,-1.2424,-1.2425,-1.243,-1.2431,-1.2434,-1.2437,-1.2442,-1.2445,-1.2449,-1.2456,-1.2456,-1.2459,-1.246,-1.246,-1.2461,-1.2463,-1.2463,-1.2455,-1.2455,-1.2455,0,0,-1.2397,-1.2402,-1.2406,-1.2416,-1.2419,-1.2425,-1.2422,-1.2429,-1.2432,-1.2432,-1.2439,-1.244,-1.2444,-1.2451,-1.2454,-1.2453,-1.2463,-1.2461,-1.2461,-1.2461,-1.2463,-1.2464,-1.2464,-1.2456,-1.2456,-1.2456,0,0,-1.2407,-1.2412,-1.242,-1.2423,-1.2428,-1.243,-1.2432,-1.2437,-1.2438,-1.2445,-1.2444,-1.2447,-1.2455,-1.2457,-1.2459,-1.2466,-1.2465,-1.2468,-1.2471,-1.2473,-1.2473,-1.2474,-1.2475,-1.2476,-1.2468,-1.2468,-1.2468,0,-1.2411,-1.2421,-1.2423,-1.2429,-1.2432,-1.2432,-1.2438,-1.2441,-1.2447,-1.2448,-1.2447,-1.2455,-1.2458,-1.2464,-1.2466,-1.2468,-1.2468,-1.2467,-1.2473,-1.2474,-1.2474,-1.2475,-1.2476,-1.2468,-1.2468,-1.2468,-1.2468,0,-1.2425,-1.2431,-1.2436,-1.2442,-1.2446,-1.2452,-1.2453,-1.2456,-1.2456,-1.2457,-1.2462,-1.2465,-1.2469,-1.247,-1.247,-1.2475,-1.2474,-1.2473,-1.2471,-1.2475,-1.2476,-1.2477,-1.2469,-1.2469,-1.2468,-1.2468,0,0,-1.2439,-1.2444,-1.2446,-1.2447,-1.2452,-1.2456,-1.2461,-1.2465,-1.2467,-1.247,-1.2473,-1.2478,-1.2476,-1.2478,-1.2478,-1.248,-1.2484,-1.2478,-1.2478,-1.2478,-1.2487,-1.2488,-1.2489,-1.2483,-1.2483,-1.2483,-1.2487,0,-1.2448,-1.2458,-1.2459,-1.2467,-1.2471,-1.247,-1.2474,-1.2476,-1.2476,-1.2479,-1.2479,-1.2482,-1.248,-1.2481,-1.2483,-1.2483,-1.2485,-1.2483,-1.2484,-1.2484,-1.2483,-1.249,-1.2491,-1.2494,-1.2487,-1.2487,-1.2487,0,-1.2462,-1.2465,-1.2474,-1.2475,-1.2477,-1.2481,-1.2483,-1.2486,-1.2488,-1.2488,-1.2489,-1.2488,-1.2491,-1.2488,-1.2491,-1.2489,-1.2489,-1.2489,-1.2489,-1.2489,-1.2486,-1.2489,-1.2496,-1.2496,-1.2488,-1.2488,-1.2488,0,-1.2469,-1.2476,-1.2481,-1.2483,-1.2485,-1.2488,-1.2488,-1.249,-1.2491,-1.2493,-1.2493,-1.2495,-1.2496,-1.2496,-1.2495,-1.2493,-1.2497,-1.2495,-1.2496,-1.2496,-1.2497,-1.2497,-1.2503,-1.2498,-1.2498,-1.2498,-1.2498,0,-1.248,-1.2485,-1.2484,-1.2488,-1.2492,-1.2492,-1.2496,-1.2497,-1.2497,-1.2499,-1.2498,-1.2499,-1.2498,-1.2499,-1.2497,-1.2499,-1.2499,-1.2498,-1.2498,-1.2498,-1.2498,-1.2499,-1.2498,-1.2498,-1.2498,-1.2498,-1.2498,0,-1.2489,-1.249,-1.2495,-1.2496,-1.2496,-1.25,-1.25,-1.2502,-1.2502,-1.2504,-1.2505,-1.2504,-1.2504,-1.2503,-1.2504,-1.2503,-1.2505,-1.2504,-1.2504,-1.2504,-1.2505,-1.2505,-1.2512,-1.2512,-1.2507,-1.2507,-1.2507,0,-1.2496,-1.25,-1.2501,-1.2502,-1.2503,-1.2506,-1.2507,-1.2505,-1.2507,-1.2507,-1.2508,-1.2509,-1.251,-1.2511,-1.2509,-1.2509,-1.2508,-1.251,-1.2508,-1.2508,-1.2507,-1.2506,-1.2506,-1.2511,-1.2511,-1.2511,-1.2511,0,-1.2507,-1.2506,-1.2509,-1.251,-1.2512,-1.2513,-1.2514,-1.2515,-1.2513,-1.2514,-1.2515,-1.2515,-1.2515,-1.2515,-1.2514,-1.2514,-1.2511,-1.2511,-1.2512,-1.2512,-1.2512,-1.2511,-1.2505,-1.2511,-1.2511,-1.2511,-1.2511,-1.2511,-1.2515,-1.2517,-1.2518,-1.2519,-1.252,-1.252,-1.2522,-1.2521,-1.2522,-1.2522,-1.2521,-1.2521,-1.252,-1.2519,-1.2518,-1.2517,-1.2516,-1.2517,-1.2517,-1.2517,-1.2517,-1.2512,-1.2517,-1.2517,-1.2517,-1.2517,-1.2517,0,-1.2525,-1.2525,-1.2526,-1.2527,-1.2528,-1.2526,-1.2526,-1.2527,-1.2527,-1.2527,-1.2527,-1.2527,-1.2526,-1.2524,-1.2523,-1.2522,-1.2521,-1.2522,-1.2522,-1.2521,-1.2518,-1.2518,-1.2523,-1.2523,-1.2523,-1.2523,-1.2523,-1.2523,-1.253,-1.2533,-1.2532,-1.2535,-1.2534,-1.2535,-1.2535,-1.2535,-1.2534,-1.2534,-1.2534,-1.2532,-1.253,-1.2528,-1.2527,-1.2526,-1.2525,-1.2527,-1.2525,-1.2522,-1.2522,-1.2521,-1.2521,-1.2527,-1.2527,-1.2528,-1.2528,-1.2528]}]]